This is the latest recevied weather packets stored in our database for station/object BARLOW-WX. If no packets are shown the sender has not sent any weather packets the latest 10 day(s).
| Time | Temp. | Humidity | Pressure | Rain* | Wind** | Luminosity | Snow |
|---|---|---|---|---|---|---|---|
| 1777439778 | 9.44° C | 87% | 985.4 hPa | 0 mm | - | - | - |
| 1777438909 | 9.44° C | 87% | 985.4 hPa | 0 mm | - | - | - |
| 1777437977 | 9.44° C | 85% | 986.7 hPa | 0 mm | - | - | - |
| 1777437096 | 9.44° C | 85% | 986.7 hPa | 0 mm | - | - | - |
| 1777436176 | 9.44° C | 88% | 984.6 hPa | 0 mm | - | - | - |
| 1777435311 | 9.44° C | 88% | 984.6 hPa | 0 mm | - | - | - |
| 1777434376 | 9.44° C | 83% | 986.2 hPa | 0 mm | - | - | - |
| 1777433496 | 9.44° C | 83% | 986.2 hPa | 0 mm | - | - | - |
| 1777432576 | 10° C | 83% | 985.9 hPa | 0 mm | - | - | - |
| 1777431707 | 10° C | 83% | 985.9 hPa | 0 mm | - | - | - |
| 1777430775 | 10° C | 76% | 983.9 hPa | 0 mm | - | - | - |
| 1777429892 | 10° C | 76% | 983.9 hPa | 0 mm | - | - | - |
| 1777428976 | 11.11° C | 79% | 985 hPa | 0 mm | - | - | - |
| 1777428104 | 11.11° C | 79% | 985 hPa | 0 mm | - | - | - |
| 1777427176 | 11.11° C | 77% | 984.6 hPa | 0 mm | - | - | - |
| 1777426291 | 11.11° C | 77% | 984.6 hPa | 0 mm | - | - | - |
| 1777425376 | 11.11° C | 77% | 984.6 hPa | 0 mm | - | - | - |
| 1777424502 | 11.11° C | 77% | 984.6 hPa | 0 mm | - | - | - |
| 1777423575 | 11.11° C | 74% | 984.2 hPa | 0 mm | - | - | - |
| 1777422689 | 11.11° C | 77% | 984.8 hPa | 0 mm | - | - | - |
| 1777421775 | 11.67° C | 77% | 984.8 hPa | 0 mm | - | - | - |
| 1777420912 | 11.67° C | 77% | 984.8 hPa | 0 mm | - | - | - |
| 1777419975 | 11.67° C | 66% | 985.1 hPa | 0 mm | - | - | - |
| 1777419091 | 12.22° C | 69% | 985.2 hPa | 0 mm | - | - | - |
| 1777418175 | 12.78° C | 69% | 985.2 hPa | 0 mm | - | - | - |
* Rain latest hour (hover to see other rain measurements)
** Current wind speed in m/s (hover to see current wind gust speed)